Zurück zum Katalog

SCOUT B DEB

LostUNKNOWN
NORAD 28801·DEBRIS·🇺🇸 United States

Gestartet Aug 10, 1965 von Wallops Flight Facility

Loading…

Nächste Überflüge (nächste 24 Stunden)

TLE

VeraltetSource: Space-Track

Epoche: Jul 8, 2017, 03:05 UTC

1 28801U 65063L   17189.12861206 -.00000519  00000-0 -30533-2 0  9994
2 28801  69.2437  90.5453 0716895   0.0679  63.0426 11.95259648551817

Verfolge SCOUT B DEB in Echtzeit mit AllMySat

Download on the App Store